Year,Month,Day,Hour,Minute,Value (Times are PST for temperature in C)
2009,08,01,00,00,15.10
2009,08,01,00,01,15.10
2009,08,01,00,02,15.10
2009,08,01,00,03,15.10
2009,08,01,00,04,15.10
2009,08,01,00,05,15.10
2009,08,01,00,06,15.10
2009,08,01,00,07,15.10
2009,08,01,00,08,15.10
2009,08,01,00,09,15.10
2009,08,01,00,10,15.10
2009,08,01,00,11,15.10
2009,08,01,00,12,15.10
2009,08,01,00,13,15.10
2009,08,01,00,14,15.10
2009,08,01,00,15,15.10
2009,08,01,00,16,15.10
2009,08,01,00,17,15.10
2009,08,01,00,18,15.10
2009,08,01,00,19,15.10
2009,08,01,00,20,15.10
2009,08,01,00,21,15.10
2009,08,01,00,22,15.00
2009,08,01,00,23,15.00
2009,08,01,00,24,15.00
2009,08,01,00,25,15.00
2009,08,01,00,26,15.00
2009,08,01,00,27,15.00
2009,08,01,00,28,15.00
2009,08,01,00,29,15.00
2009,08,01,00,30,15.00
2009,08,01,00,31,15.00
2009,08,01,00,32,15.00
2009,08,01,00,33,15.00
2009,08,01,00,34,14.90
2009,08,01,00,35,14.90
2009,08,01,00,36,14.90
2009,08,01,00,37,14.90
2009,08,01,00,38,14.90
2009,08,01,00,39,14.90
2009,08,01,00,40,14.90
2009,08,01,00,41,14.90
2009,08,01,00,42,14.90
2009,08,01,00,43,14.90
2009,08,01,00,44,14.90
2009,08,01,00,45,14.80
2009,08,01,00,46,14.80
2009,08,01,00,47,14.80
2009,08,01,00,48,14.70
2009,08,01,00,49,14.70
2009,08,01,00,50,14.60
2009,08,01,00,51,14.60
2009,08,01,00,52,14.60
2009,08,01,00,53,14.50
2009,08,01,00,54,14.50
2009,08,01,00,55,14.50
2009,08,01,00,56,14.50
2009,08,01,00,57,14.40
2009,08,01,00,58,14.40
2009,08,01,00,59,14.40
2009,08,01,01,00,14.40
2009,08,01,01,01,14.40
2009,08,01,01,02,14.40
2009,08,01,01,03,14.40
2009,08,01,01,04,14.30
2009,08,01,01,05,14.30
2009,08,01,01,06,14.30
2009,08,01,01,07,14.30
2009,08,01,01,08,14.20
2009,08,01,01,09,14.20
2009,08,01,01,10,14.20
2009,08,01,01,11,14.20
2009,08,01,01,12,14.20
2009,08,01,01,13,14.20
2009,08,01,01,14,14.20
2009,08,01,01,15,14.10
2009,08,01,01,16,14.10
2009,08,01,01,17,14.10
2009,08,01,01,18,14.00
2009,08,01,01,19,14.00
2009,08,01,01,20,14.00
2009,08,01,01,21,14.00
2009,08,01,01,22,13.90
2009,08,01,01,23,13.90
2009,08,01,01,24,13.90
2009,08,01,01,25,13.80
2009,08,01,01,26,13.80
2009,08,01,01,27,13.80
2009,08,01,01,28,13.70
2009,08,01,01,29,13.70
2009,08,01,01,30,13.70
2009,08,01,01,31,13.70
2009,08,01,01,32,13.60
2009,08,01,01,33,13.60
2009,08,01,01,34,13.60
2009,08,01,01,35,13.60
2009,08,01,01,36,13.60
2009,08,01,01,37,13.50
2009,08,01,01,38,13.50
2009,08,01,01,39,13.50
2009,08,01,01,40,13.50
2009,08,01,01,41,13.50
2009,08,01,01,42,13.40
2009,08,01,01,43,13.40
2009,08,01,01,44,13.40
2009,08,01,01,45,13.40
2009,08,01,01,46,13.30
2009,08,01,01,47,13.30
2009,08,01,01,48,13.30
2009,08,01,01,49,13.30
2009,08,01,01,50,13.30
2009,08,01,01,51,13.30
2009,08,01,01,52,13.30
2009,08,01,01,53,13.30
2009,08,01,01,54,13.30
2009,08,01,01,55,13.30
2009,08,01,01,56,13.30
2009,08,01,01,57,13.30
2009,08,01,01,58,13.30
2009,08,01,01,59,13.30
2009,08,01,02,00,13.30
2009,08,01,02,01,13.30
2009,08,01,02,02,13.30
2009,08,01,02,03,13.30
2009,08,01,02,04,13.30
2009,08,01,02,05,13.30
2009,08,01,02,06,13.30
2009,08,01,02,07,13.30
2009,08,01,02,08,13.30
2009,08,01,02,09,13.30
2009,08,01,02,10,13.30
2009,08,01,02,11,13.30
2009,08,01,02,12,13.30
2009,08,01,02,13,13.30
2009,08,01,02,14,13.30
2009,08,01,02,15,13.30
2009,08,01,02,16,13.30
2009,08,01,02,17,13.30
2009,08,01,02,18,13.30
2009,08,01,02,19,13.30
2009,08,01,02,20,13.30
2009,08,01,02,21,13.30
2009,08,01,02,22,13.30
2009,08,01,02,23,13.30
2009,08,01,02,24,13.30
2009,08,01,02,25,13.30
2009,08,01,02,26,13.30
2009,08,01,02,27,13.30
2009,08,01,02,28,13.30
2009,08,01,02,29,13.30
2009,08,01,02,30,13.30
2009,08,01,02,31,13.30
2009,08,01,02,32,13.30
2009,08,01,02,33,13.30
2009,08,01,02,34,13.20
2009,08,01,02,35,13.20
2009,08,01,02,36,13.20
2009,08,01,02,37,13.20
2009,08,01,02,38,13.20
2009,08,01,02,39,13.20
2009,08,01,02,40,13.20
2009,08,01,02,41,13.10
2009,08,01,02,42,13.10
2009,08,01,02,43,13.10
2009,08,01,02,44,13.10
2009,08,01,02,45,13.10
2009,08,01,02,46,13.00
2009,08,01,02,47,13.00
2009,08,01,02,48,13.00
2009,08,01,02,49,13.00
2009,08,01,02,50,13.00
2009,08,01,02,51,13.00
2009,08,01,02,52,13.00
2009,08,01,02,53,13.00
2009,08,01,02,54,13.00
2009,08,01,02,55,12.90
2009,08,01,02,56,12.90
2009,08,01,02,57,12.90
2009,08,01,02,58,12.90
2009,08,01,02,59,12.90
2009,08,01,03,00,12.90
2009,08,01,03,01,12.90
2009,08,01,03,02,12.80
2009,08,01,03,03,12.80
2009,08,01,03,04,12.80
2009,08,01,03,05,12.80
2009,08,01,03,06,12.80
2009,08,01,03,07,12.80
2009,08,01,03,08,12.80
2009,08,01,03,09,12.80
2009,08,01,03,10,12.80
2009,08,01,03,11,12.80
2009,08,01,03,12,12.80
2009,08,01,03,13,12.80
2009,08,01,03,14,12.80
2009,08,01,03,15,12.80
2009,08,01,03,16,12.80
2009,08,01,03,17,12.80
2009,08,01,03,18,12.80
2009,08,01,03,19,12.80
2009,08,01,03,20,12.80
2009,08,01,03,21,12.80
2009,08,01,03,22,12.80
2009,08,01,03,23,12.80
2009,08,01,03,24,12.80
2009,08,01,03,25,12.80
2009,08,01,03,26,12.80
2009,08,01,03,27,12.80
2009,08,01,03,28,12.80
2009,08,01,03,29,12.80
2009,08,01,03,30,12.80
2009,08,01,03,31,12.80
2009,08,01,03,32,12.80
2009,08,01,03,33,12.70
2009,08,01,03,34,12.70
2009,08,01,03,35,12.70
2009,08,01,03,36,12.70
2009,08,01,03,37,12.70
2009,08,01,03,38,12.70
2009,08,01,03,39,12.70
2009,08,01,03,40,12.70
2009,08,01,03,41,12.60
2009,08,01,03,42,12.60
2009,08,01,03,43,12.60
2009,08,01,03,44,12.60
2009,08,01,03,45,12.60
2009,08,01,03,46,12.60
2009,08,01,03,47,12.60
2009,08,01,03,48,12.60
2009,08,01,03,49,12.60
2009,08,01,03,50,12.60
2009,08,01,03,51,12.60
2009,08,01,03,52,12.60
2009,08,01,03,53,12.60
2009,08,01,03,54,12.60
2009,08,01,03,55,12.60
2009,08,01,03,56,12.60
2009,08,01,03,57,12.60
2009,08,01,03,58,12.60
2009,08,01,03,59,12.60
2009,08,01,04,00,12.60
2009,08,01,04,01,12.60
2009,08,01,04,02,12.60
2009,08,01,04,03,12.50
2009,08,01,04,04,12.50
2009,08,01,04,05,12.50
2009,08,01,04,06,12.50
2009,08,01,04,07,12.50
2009,08,01,04,08,12.50
2009,08,01,04,09,12.50
2009,08,01,04,10,12.50
2009,08,01,04,11,12.50
2009,08,01,04,12,12.50
2009,08,01,04,13,12.50
2009,08,01,04,14,12.50
2009,08,01,04,15,12.50
2009,08,01,04,16,12.50
2009,08,01,04,17,12.50
2009,08,01,04,18,12.50
2009,08,01,04,19,12.50
2009,08,01,04,20,12.50
2009,08,01,04,21,12.50
2009,08,01,04,22,12.50
2009,08,01,04,23,12.50
2009,08,01,04,24,12.50
2009,08,01,04,25,12.50
2009,08,01,04,26,12.50
2009,08,01,04,27,12.50
2009,08,01,04,28,12.50
2009,08,01,04,29,12.50
2009,08,01,04,30,12.50
2009,08,01,04,31,12.50
2009,08,01,04,32,12.50
2009,08,01,04,33,12.50
2009,08,01,04,34,12.50
2009,08,01,04,35,12.50
2009,08,01,04,36,12.60
2009,08,01,04,37,12.60
2009,08,01,04,38,12.60
2009,08,01,04,39,12.60
2009,08,01,04,40,12.60
2009,08,01,04,41,12.60
2009,08,01,04,42,12.70
2009,08,01,04,43,12.70
2009,08,01,04,44,12.70
2009,08,01,04,45,12.70
2009,08,01,04,46,12.70
2009,08,01,04,47,12.70
2009,08,01,04,48,12.70
2009,08,01,04,49,12.70
2009,08,01,04,50,12.70
2009,08,01,04,51,12.80
2009,08,01,04,52,12.80
2009,08,01,04,53,12.80
2009,08,01,04,54,12.80
2009,08,01,04,55,12.80
2009,08,01,04,56,12.80
2009,08,01,04,57,12.80
2009,08,01,04,58,12.90
2009,08,01,04,59,12.90
2009,08,01,05,00,12.90
2009,08,01,05,01,13.00
2009,08,01,05,02,13.00
2009,08,01,05,03,13.00
2009,08,01,05,04,13.00
2009,08,01,05,05,13.00
2009,08,01,05,06,13.00
2009,08,01,05,07,13.00
2009,08,01,05,08,13.10
2009,08,01,05,09,13.10
2009,08,01,05,10,13.10
2009,08,01,05,11,13.10
2009,08,01,05,12,13.00
2009,08,01,05,13,13.00
2009,08,01,05,14,13.00
2009,08,01,05,15,13.00
2009,08,01,05,16,13.00
2009,08,01,05,17,13.00
2009,08,01,05,18,13.00
2009,08,01,05,19,13.00
2009,08,01,05,20,13.00
2009,08,01,05,21,12.90
2009,08,01,05,22,12.90
2009,08,01,05,23,12.90
2009,08,01,05,24,12.90
2009,08,01,05,25,12.90
2009,08,01,05,26,12.90
2009,08,01,05,27,12.90
2009,08,01,05,28,12.90
2009,08,01,05,29,12.90
2009,08,01,05,30,12.90
2009,08,01,05,31,12.90
2009,08,01,05,32,12.90
2009,08,01,05,33,12.80
2009,08,01,05,34,12.80
2009,08,01,05,35,12.80
2009,08,01,05,36,12.80
2009,08,01,05,37,12.80
2009,08,01,05,38,12.80
2009,08,01,05,39,12.80
2009,08,01,05,40,12.80
2009,08,01,05,41,12.80
2009,08,01,05,42,12.80
2009,08,01,05,43,12.80
2009,08,01,05,44,12.80
2009,08,01,05,45,12.80
2009,08,01,05,46,12.80
2009,08,01,05,47,12.80
2009,08,01,05,48,12.80
2009,08,01,05,49,12.80
2009,08,01,05,50,12.80
2009,08,01,05,51,12.80
2009,08,01,05,52,12.80
2009,08,01,05,53,12.80
2009,08,01,05,54,12.70
2009,08,01,05,55,12.70
2009,08,01,05,56,12.70
2009,08,01,05,57,12.70
2009,08,01,05,58,12.70
2009,08,01,05,59,12.70
2009,08,01,06,00,12.70
2009,08,01,06,01,12.70
2009,08,01,06,02,12.70
2009,08,01,06,03,12.70
2009,08,01,06,04,12.60
2009,08,01,06,05,12.60
2009,08,01,06,06,12.70
2009,08,01,06,07,12.70
2009,08,01,06,08,12.70
2009,08,01,06,09,12.70
2009,08,01,06,10,12.60
2009,08,01,06,11,12.60
2009,08,01,06,12,12.60
2009,08,01,06,13,12.60
2009,08,01,06,14,12.60
2009,08,01,06,15,12.60
2009,08,01,06,16,12.60
2009,08,01,06,17,12.60
2009,08,01,06,18,12.60
2009,08,01,06,19,12.60
2009,08,01,06,20,12.60
2009,08,01,06,21,12.60
2009,08,01,06,22,12.60
2009,08,01,06,23,12.60
2009,08,01,06,24,12.60
2009,08,01,06,25,12.70
2009,08,01,06,26,12.70
2009,08,01,06,27,12.70
2009,08,01,06,28,12.70
2009,08,01,06,29,12.70
2009,08,01,06,30,12.80
2009,08,01,06,31,12.80
2009,08,01,06,32,12.80
2009,08,01,06,33,12.80
2009,08,01,06,34,12.80
2009,08,01,06,35,12.80
2009,08,01,06,36,12.80
2009,08,01,06,37,12.80
2009,08,01,06,38,12.80
2009,08,01,06,39,12.80
2009,08,01,06,40,12.80
2009,08,01,06,41,12.80
2009,08,01,06,42,12.80
2009,08,01,06,43,12.80
2009,08,01,06,44,12.90
2009,08,01,06,45,12.90
2009,08,01,06,46,12.90
2009,08,01,06,47,12.90
2009,08,01,06,48,12.90
2009,08,01,06,49,12.90
2009,08,01,06,50,12.90
2009,08,01,06,51,12.90
2009,08,01,06,52,12.90
2009,08,01,06,53,12.90
2009,08,01,06,54,13.00
2009,08,01,06,55,13.00
2009,08,01,06,56,13.00
2009,08,01,06,57,13.00
2009,08,01,06,58,13.10
2009,08,01,06,59,13.10
2009,08,01,07,00,13.10
2009,08,01,07,01,13.10
2009,08,01,07,02,13.20
2009,08,01,07,03,13.20
2009,08,01,07,04,13.30
2009,08,01,07,05,13.30
2009,08,01,07,06,13.30
2009,08,01,07,07,13.30
2009,08,01,07,08,13.30
2009,08,01,07,09,13.40
2009,08,01,07,10,13.40
2009,08,01,07,11,13.40
2009,08,01,07,12,13.50
2009,08,01,07,13,13.50
2009,08,01,07,14,13.50
2009,08,01,07,15,13.50
2009,08,01,07,16,13.60
2009,08,01,07,17,13.60
2009,08,01,07,18,13.60
2009,08,01,07,19,13.70
2009,08,01,07,20,13.70
2009,08,01,07,21,13.70
2009,08,01,07,22,13.70
2009,08,01,07,23,13.70
2009,08,01,07,24,13.80
2009,08,01,07,25,13.80
2009,08,01,07,26,13.90
2009,08,01,07,27,13.90
2009,08,01,07,28,14.00
2009,08,01,07,29,14.00
2009,08,01,07,30,14.00
2009,08,01,07,31,14.10
2009,08,01,07,32,14.10
2009,08,01,07,33,14.20
2009,08,01,07,34,14.20
2009,08,01,07,35,14.20
2009,08,01,07,36,14.20
2009,08,01,07,37,14.20
2009,08,01,07,38,14.30
2009,08,01,07,39,14.40
2009,08,01,07,40,14.40
2009,08,01,07,41,14.50
2009,08,01,07,42,14.50
2009,08,01,07,43,14.60
2009,08,01,07,44,14.60
2009,08,01,07,45,14.70
2009,08,01,07,46,14.70
2009,08,01,07,47,14.80
2009,08,01,07,48,14.80
2009,08,01,07,49,14.90
2009,08,01,07,50,15.00
2009,08,01,07,51,15.10
2009,08,01,07,52,15.10
2009,08,01,07,53,15.20
2009,08,01,07,54,15.20
2009,08,01,07,55,15.30
2009,08,01,07,56,15.30
2009,08,01,07,57,15.30
2009,08,01,07,58,15.40
2009,08,01,07,59,15.50
2009,08,01,08,00,15.50
2009,08,01,08,01,15.60
2009,08,01,08,02,15.60
2009,08,01,08,03,15.60
2009,08,01,08,04,15.70
2009,08,01,08,05,15.70
2009,08,01,08,06,15.80
2009,08,01,08,07,15.80
2009,08,01,08,08,15.90
2009,08,01,08,09,15.90
2009,08,01,08,10,16.00
2009,08,01,08,11,16.10
2009,08,01,08,12,16.10
2009,08,01,08,13,16.10
2009,08,01,08,14,16.20
2009,08,01,08,15,16.20
2009,08,01,08,16,16.30
2009,08,01,08,17,16.30
2009,08,01,08,18,16.40
2009,08,01,08,19,16.40
2009,08,01,08,20,16.50
2009,08,01,08,21,16.60
2009,08,01,08,22,16.70
2009,08,01,08,23,16.70
2009,08,01,08,24,16.80
2009,08,01,08,25,16.90
2009,08,01,08,26,17.00
2009,08,01,08,27,17.10
2009,08,01,08,28,17.10
2009,08,01,08,29,17.10
2009,08,01,08,30,17.10
2009,08,01,08,31,17.10
2009,08,01,08,32,17.10
2009,08,01,08,33,17.10
2009,08,01,08,34,17.20
2009,08,01,08,35,17.20
2009,08,01,08,36,17.20
2009,08,01,08,37,17.30
2009,08,01,08,38,17.40
2009,08,01,08,39,17.50
2009,08,01,08,40,17.50
2009,08,01,08,41,17.60
2009,08,01,08,42,17.70
2009,08,01,08,43,17.70
2009,08,01,08,44,17.80
2009,08,01,08,45,17.80
2009,08,01,08,46,17.80
2009,08,01,08,47,17.80
2009,08,01,08,48,17.80
2009,08,01,08,49,17.80
2009,08,01,08,50,17.70
2009,08,01,08,51,17.70
2009,08,01,08,52,17.70
2009,08,01,08,53,17.70
2009,08,01,08,54,17.70
2009,08,01,08,55,17.70
2009,08,01,08,56,17.70
2009,08,01,08,57,17.70
2009,08,01,08,58,17.80
2009,08,01,08,59,17.80
2009,08,01,09,00,17.90
2009,08,01,09,01,17.90
2009,08,01,09,02,18.00
2009,08,01,09,03,18.10
2009,08,01,09,04,18.20
2009,08,01,09,05,18.20
2009,08,01,09,06,18.30
2009,08,01,09,07,18.30
2009,08,01,09,08,18.30
2009,08,01,09,09,18.30
2009,08,01,09,10,18.40
2009,08,01,09,11,18.40
2009,08,01,09,12,18.30
2009,08,01,09,13,18.30
2009,08,01,09,14,18.30
2009,08,01,09,15,18.30
2009,08,01,09,16,18.30
2009,08,01,09,17,18.30
2009,08,01,09,18,18.30
2009,08,01,09,19,18.30
2009,08,01,09,20,18.40
2009,08,01,09,21,18.40
2009,08,01,09,22,18.40
2009,08,01,09,23,18.40
2009,08,01,09,24,18.40
2009,08,01,09,25,18.40
2009,08,01,09,26,18.40
2009,08,01,09,27,18.40
2009,08,01,09,28,18.30
2009,08,01,09,29,18.40
2009,08,01,09,30,18.40
2009,08,01,09,31,18.40
2009,08,01,09,32,18.50
2009,08,01,09,33,18.50
2009,08,01,09,34,18.60
2009,08,01,09,35,18.70
2009,08,01,09,36,18.90
2009,08,01,09,37,19.10
2009,08,01,09,38,19.20
2009,08,01,09,39,19.40
2009,08,01,09,40,19.50
2009,08,01,09,41,19.60
2009,08,01,09,42,19.80
2009,08,01,09,43,19.90
2009,08,01,09,44,20.00
2009,08,01,09,45,20.20
2009,08,01,09,46,20.20
2009,08,01,09,47,20.20
2009,08,01,09,48,20.20
2009,08,01,09,49,20.10
2009,08,01,09,50,20.00
2009,08,01,09,51,19.90
2009,08,01,09,52,19.80
2009,08,01,09,53,19.80
2009,08,01,09,54,19.80
2009,08,01,09,55,19.80
2009,08,01,09,56,19.90
2009,08,01,09,57,19.90
2009,08,01,09,58,19.90
2009,08,01,09,59,19.90
2009,08,01,10,00,19.90
2009,08,01,10,01,20.00
2009,08,01,10,02,20.10
2009,08,01,10,03,20.20
2009,08,01,10,04,20.20
2009,08,01,10,05,20.30
2009,08,01,10,06,20.30
2009,08,01,10,07,20.30
2009,08,01,10,08,20.30
2009,08,01,10,09,20.40
2009,08,01,10,10,20.50
2009,08,01,10,11,20.60
2009,08,01,10,12,20.60
2009,08,01,10,13,20.50
2009,08,01,10,14,20.50
2009,08,01,10,15,20.50
2009,08,01,10,16,20.60
2009,08,01,10,17,20.60
2009,08,01,10,18,20.60
2009,08,01,10,19,20.60
2009,08,01,10,20,20.50
2009,08,01,10,21,20.40
2009,08,01,10,22,20.30
2009,08,01,10,23,20.20
2009,08,01,10,24,20.20
2009,08,01,10,25,20.20
2009,08,01,10,26,20.20
2009,08,01,10,27,20.20
2009,08,01,10,28,20.30
2009,08,01,10,29,20.30
2009,08,01,10,30,20.30
2009,08,01,10,31,20.40
2009,08,01,10,32,20.40
2009,08,01,10,33,20.40
2009,08,01,10,34,20.40
2009,08,01,10,35,20.50
2009,08,01,10,36,20.50
2009,08,01,10,37,20.50
2009,08,01,10,38,20.50
2009,08,01,10,39,20.50
2009,08,01,10,40,20.40
2009,08,01,10,41,20.30
2009,08,01,10,42,20.30
2009,08,01,10,43,20.30
2009,08,01,10,44,20.40
2009,08,01,10,45,20.50
2009,08,01,10,46,20.50
2009,08,01,10,47,20.60
2009,08,01,10,48,20.60
2009,08,01,10,49,20.70
2009,08,01,10,50,20.80
2009,08,01,10,51,20.80
2009,08,01,10,52,20.90
2009,08,01,10,53,20.90
2009,08,01,10,54,20.90
2009,08,01,10,55,20.90
2009,08,01,10,56,20.90
2009,08,01,10,57,20.90
2009,08,01,10,58,21.00
2009,08,01,10,59,21.10
2009,08,01,11,00,21.10
2009,08,01,11,01,21.10
2009,08,01,11,02,21.10
2009,08,01,11,03,21.10
2009,08,01,11,04,21.10
2009,08,01,11,05,21.20
2009,08,01,11,06,21.30
2009,08,01,11,07,21.40
2009,08,01,11,08,21.40
2009,08,01,11,09,21.40
2009,08,01,11,10,21.40
2009,08,01,11,11,21.40
2009,08,01,11,12,21.30
2009,08,01,11,13,21.30
2009,08,01,11,14,21.30
2009,08,01,11,15,21.30
2009,08,01,11,16,21.30
2009,08,01,11,17,21.30
2009,08,01,11,18,21.30
2009,08,01,11,19,21.30
2009,08,01,11,20,21.30
2009,08,01,11,21,21.30
2009,08,01,11,22,21.30
2009,08,01,11,23,21.30
2009,08,01,11,24,21.30
2009,08,01,11,25,21.30
2009,08,01,11,26,21.30
2009,08,01,11,27,21.30
2009,08,01,11,28,21.30
2009,08,01,11,29,21.30
2009,08,01,11,30,21.30
2009,08,01,11,31,21.30
2009,08,01,11,32,21.40
2009,08,01,11,33,21.40
2009,08,01,11,34,21.40
2009,08,01,11,35,21.40
2009,08,01,11,36,21.60
2009,08,01,11,37,21.60
2009,08,01,11,38,21.70
2009,08,01,11,39,21.80
2009,08,01,11,40,21.80
2009,08,01,11,41,21.90
2009,08,01,11,42,21.90
2009,08,01,11,43,21.90
2009,08,01,11,44,21.80
2009,08,01,11,45,21.60
2009,08,01,11,46,21.60
2009,08,01,11,47,21.60
2009,08,01,11,48,21.50
2009,08,01,11,49,21.40
2009,08,01,11,50,21.30
2009,08,01,11,51,21.30
2009,08,01,11,52,21.30
2009,08,01,11,53,21.40
2009,08,01,11,54,21.50
2009,08,01,11,55,21.60
2009,08,01,11,56,21.60
2009,08,01,11,57,21.70
2009,08,01,11,58,21.80
2009,08,01,11,59,21.80
2009,08,01,12,00,21.90
2009,08,01,12,01,22.10
2009,08,01,12,02,22.10
2009,08,01,12,03,22.20
2009,08,01,12,04,22.30
2009,08,01,12,05,22.50
2009,08,01,12,06,22.60
2009,08,01,12,07,22.70
2009,08,01,12,08,22.80
2009,08,01,12,09,23.00
2009,08,01,12,10,23.10
2009,08,01,12,11,23.20
2009,08,01,12,12,23.30
2009,08,01,12,13,23.30
2009,08,01,12,14,23.30
2009,08,01,12,15,23.50
2009,08,01,12,16,23.70
2009,08,01,12,17,23.70
2009,08,01,12,18,23.70
2009,08,01,12,19,23.70
2009,08,01,12,20,23.80
2009,08,01,12,21,23.80
2009,08,01,12,22,23.90
2009,08,01,12,23,23.90
2009,08,01,12,24,23.90
2009,08,01,12,25,24.00
2009,08,01,12,26,24.10
2009,08,01,12,27,24.10
2009,08,01,12,28,24.10
2009,08,01,12,29,24.10
2009,08,01,12,30,24.10
2009,08,01,12,31,24.10
2009,08,01,12,32,24.10
2009,08,01,12,33,24.10
2009,08,01,12,34,23.90
2009,08,01,12,35,23.90
2009,08,01,12,36,23.80
2009,08,01,12,37,23.80
2009,08,01,12,38,23.80
2009,08,01,12,39,23.90
2009,08,01,12,40,24.00
2009,08,01,12,41,24.10
2009,08,01,12,42,24.10
2009,08,01,12,43,24.10
2009,08,01,12,44,24.30
2009,08,01,12,45,24.40
2009,08,01,12,46,24.50
2009,08,01,12,47,24.50
2009,08,01,12,48,24.50
2009,08,01,12,49,24.50
2009,08,01,12,50,24.40
2009,08,01,12,51,24.40
2009,08,01,12,52,24.40
2009,08,01,12,53,24.40
2009,08,01,12,54,24.40
2009,08,01,12,55,24.50
2009,08,01,12,56,24.50
2009,08,01,12,57,24.60
2009,08,01,12,58,24.60
2009,08,01,12,59,24.70
2009,08,01,13,00,24.40
2009,08,01,13,01,24.20
2009,08,01,13,02,24.20
2009,08,01,13,03,24.20
2009,08,01,13,04,24.20
2009,08,01,13,05,24.20
2009,08,01,13,06,24.10
2009,08,01,13,07,24.10
2009,08,01,13,08,24.10
2009,08,01,13,09,23.90
2009,08,01,13,10,24.00
2009,08,01,13,11,24.10
2009,08,01,13,12,24.10
2009,08,01,13,13,24.30
2009,08,01,13,14,24.40
2009,08,01,13,15,24.40
2009,08,01,13,16,24.50
2009,08,01,13,17,24.60
2009,08,01,13,18,24.60
2009,08,01,13,19,24.60
2009,08,01,13,20,24.60
2009,08,01,13,21,24.40
2009,08,01,13,22,24.30
2009,08,01,13,23,24.10
2009,08,01,13,24,24.10
2009,08,01,13,25,24.10
2009,08,01,13,26,24.20
2009,08,01,13,27,24.30
2009,08,01,13,28,24.30
2009,08,01,13,29,24.40
2009,08,01,13,30,24.50
2009,08,01,13,31,24.40
2009,08,01,13,32,24.20
2009,08,01,13,33,24.00
2009,08,01,13,34,23.90
2009,08,01,13,35,23.90
2009,08,01,13,36,23.80
2009,08,01,13,37,23.90
2009,08,01,13,38,23.90
2009,08,01,13,39,23.90
2009,08,01,13,40,23.90
2009,08,01,13,41,23.90
2009,08,01,13,42,24.00
2009,08,01,13,43,24.10
2009,08,01,13,44,24.10
2009,08,01,13,45,24.00
2009,08,01,13,46,23.90
2009,08,01,13,47,24.00
2009,08,01,13,48,24.10
2009,08,01,13,49,24.10
2009,08,01,13,50,24.20
2009,08,01,13,51,24.40
2009,08,01,13,52,24.40
2009,08,01,13,53,24.40
2009,08,01,13,54,24.50
2009,08,01,13,55,24.50
2009,08,01,13,56,24.80
2009,08,01,13,57,24.90
2009,08,01,13,58,25.00
2009,08,01,13,59,25.20
2009,08,01,14,00,25.40
2009,08,01,14,01,25.50
2009,08,01,14,02,25.60
2009,08,01,14,03,25.70
2009,08,01,14,04,25.80
2009,08,01,14,05,25.90
2009,08,01,14,06,25.90
2009,08,01,14,07,26.00
2009,08,01,14,08,26.10
2009,08,01,14,09,26.10
2009,08,01,14,10,26.10
2009,08,01,14,11,26.10
2009,08,01,14,12,26.10
2009,08,01,14,13,26.00
2009,08,01,14,14,25.90
2009,08,01,14,15,25.80
2009,08,01,14,16,25.80
2009,08,01,14,17,25.80
2009,08,01,14,18,25.90
2009,08,01,14,19,26.00
2009,08,01,14,20,26.00
2009,08,01,14,21,26.10
2009,08,01,14,22,26.10
2009,08,01,14,23,26.30
2009,08,01,14,24,26.40
2009,08,01,14,25,26.50
2009,08,01,14,26,26.60
2009,08,01,14,27,26.60
2009,08,01,14,28,26.60
2009,08,01,14,29,26.60
2009,08,01,14,30,26.50
2009,08,01,14,31,26.30
2009,08,01,14,32,26.20
2009,08,01,14,33,26.10
2009,08,01,14,34,26.10
2009,08,01,14,35,26.10
2009,08,01,14,36,26.00
2009,08,01,14,37,26.00
2009,08,01,14,38,26.00
2009,08,01,14,39,25.90
2009,08,01,14,40,25.90
2009,08,01,14,41,26.00
2009,08,01,14,42,26.00
2009,08,01,14,43,26.00
2009,08,01,14,44,26.10
2009,08,01,14,45,26.10
2009,08,01,14,46,26.10
2009,08,01,14,47,26.00
2009,08,01,14,48,25.90
2009,08,01,14,49,25.80
2009,08,01,14,50,25.90
2009,08,01,14,51,26.00
2009,08,01,14,52,26.10
2009,08,01,14,53,26.20
2009,08,01,14,54,26.10
2009,08,01,14,55,26.00
2009,08,01,14,56,26.00
2009,08,01,14,57,26.10
2009,08,01,14,58,26.20
2009,08,01,14,59,26.20
2009,08,01,15,00,26.30
2009,08,01,15,01,26.20
2009,08,01,15,02,26.20
2009,08,01,15,03,26.30
2009,08,01,15,04,26.40
2009,08,01,15,05,26.50
2009,08,01,15,06,26.60
2009,08,01,15,07,26.60
2009,08,01,15,08,26.60
2009,08,01,15,09,26.60
2009,08,01,15,10,26.60
2009,08,01,15,11,26.60
2009,08,01,15,12,26.60
2009,08,01,15,13,26.60
2009,08,01,15,14,26.70
2009,08,01,15,15,26.80
2009,08,01,15,16,26.80
2009,08,01,15,17,26.90
2009,08,01,15,18,26.90
2009,08,01,15,19,26.90
2009,08,01,15,20,27.00
2009,08,01,15,21,27.10
2009,08,01,15,22,27.20
2009,08,01,15,23,27.30
2009,08,01,15,24,27.40
2009,08,01,15,25,27.40
2009,08,01,15,26,27.60
2009,08,01,15,27,27.70
2009,08,01,15,28,27.70
2009,08,01,15,29,27.80
2009,08,01,15,30,27.80
2009,08,01,15,31,27.90
2009,08,01,15,32,27.90
2009,08,01,15,33,27.90
2009,08,01,15,34,27.80
2009,08,01,15,35,27.80
2009,08,01,15,36,27.80
2009,08,01,15,37,27.80
2009,08,01,15,38,27.90
2009,08,01,15,39,28.00
2009,08,01,15,40,28.00
2009,08,01,15,41,28.00
2009,08,01,15,42,28.00
2009,08,01,15,43,28.00
2009,08,01,15,44,27.90
2009,08,01,15,45,27.80
2009,08,01,15,46,27.80
2009,08,01,15,47,27.90
2009,08,01,15,48,27.90
2009,08,01,15,49,28.00
2009,08,01,15,50,28.10
2009,08,01,15,51,28.20
2009,08,01,15,52,28.30
2009,08,01,15,53,28.30
2009,08,01,15,54,28.10
2009,08,01,15,55,28.10
2009,08,01,15,56,28.10
2009,08,01,15,57,28.10
2009,08,01,15,58,28.10
2009,08,01,15,59,28.10
2009,08,01,16,00,28.20
2009,08,01,16,01,28.20
2009,08,01,16,02,28.30
2009,08,01,16,03,28.20
2009,08,01,16,04,28.20
2009,08,01,16,05,28.10
2009,08,01,16,06,28.10
2009,08,01,16,07,28.00
2009,08,01,16,08,28.00
2009,08,01,16,09,28.00
2009,08,01,16,10,28.00
2009,08,01,16,11,28.00
2009,08,01,16,12,28.10
2009,08,01,16,13,28.10
2009,08,01,16,14,28.10
2009,08,01,16,15,28.10
2009,08,01,16,16,28.20
2009,08,01,16,17,28.20
2009,08,01,16,18,28.10
2009,08,01,16,19,28.10
2009,08,01,16,20,28.20
2009,08,01,16,21,28.20
2009,08,01,16,22,28.30
2009,08,01,16,23,28.40
2009,08,01,16,24,28.40
2009,08,01,16,25,28.60
2009,08,01,16,26,28.60
2009,08,01,16,27,28.60
2009,08,01,16,28,28.70
2009,08,01,16,29,28.70
2009,08,01,16,30,28.60
2009,08,01,16,31,28.50
2009,08,01,16,32,28.40
2009,08,01,16,33,28.40
2009,08,01,16,34,28.30
2009,08,01,16,35,28.30
2009,08,01,16,36,28.30
2009,08,01,16,37,28.40
2009,08,01,16,38,28.40
2009,08,01,16,39,28.50
2009,08,01,16,40,28.60
2009,08,01,16,41,28.60
2009,08,01,16,42,28.60
2009,08,01,16,43,28.60
2009,08,01,16,44,28.50
2009,08,01,16,45,28.40
2009,08,01,16,46,28.30
2009,08,01,16,47,28.20
2009,08,01,16,48,28.10
2009,08,01,16,49,28.20
2009,08,01,16,50,28.30
2009,08,01,16,51,28.40
2009,08,01,16,52,28.50
2009,08,01,16,53,28.40
2009,08,01,16,54,28.30
2009,08,01,16,55,28.20
2009,08,01,16,56,28.20
2009,08,01,16,57,28.10
2009,08,01,16,58,28.00
2009,08,01,16,59,28.00
2009,08,01,17,00,27.90
2009,08,01,17,01,27.90
2009,08,01,17,02,28.00
2009,08,01,17,03,28.00
2009,08,01,17,04,28.00
2009,08,01,17,05,28.10
2009,08,01,17,06,28.20
2009,08,01,17,07,28.30
2009,08,01,17,08,28.50
2009,08,01,17,09,28.60
2009,08,01,17,10,28.70
2009,08,01,17,11,28.80
2009,08,01,17,12,28.80
2009,08,01,17,13,28.80
2009,08,01,17,14,28.90
2009,08,01,17,15,28.90
2009,08,01,17,16,28.90
2009,08,01,17,17,28.90
2009,08,01,17,18,28.90
2009,08,01,17,19,28.90